Location: Prescott
(34.5400°N, 112.4680°W)
Time: 09:22:07
(UTC-07:00)

Amateur Radio Satellites - All Passes

Search period start: 26 January 2015 08:52
Search period end: 27 January 2015 08:52
Location: Prescott, 34.5400°N, 112.4680°W

Satellite Date Start Highest point End Downlink Frequencies (MHz)
Time Altitude Azimuth
SEEDS 26 Jan 09:01:42 09:05:35 36° 98° (E) 09:09:28 437.485
HO-68 26 Jan 09:05:20 09:12:20 56° 101° (E) 09:19:21 435.675
UNISAT 6 26 Jan 09:15:23 09:17:46 14° 68° (ENE) 09:20:24 437.425
BRITE-PL 26 Jan 09:20:35 09:26:18 78° 284° (WNW) 09:31:47 437.365/2234.400
UWE-3 26 Jan 09:23:38 09:25:24 12° 89° (E) 09:27:25 435.000/436.395/437.385
YUBILEINY 26 Jan 09:32:36 09:38:26 19° 277° (W) 09:43:45 435.215
COMPASS 1 26 Jan 09:32:55 09:37:05 76° 101° (E) 09:41:14 437.405
GOMX 1 26 Jan 09:33:17 09:38:45 82° 285° (WNW) 09:43:58 467.674
VERMONT LUNAR 26 Jan 09:35:57 09:39:16 43° 150° (SSE) 09:42:37 437.305
CANX-2 26 Jan 09:37:12 09:41:22 58° 284° (WNW) 09:45:29 2200.000
QB50P1 26 Jan 09:37:58 09:39:48 13° 68° (ENE) 09:41:51 145.935-145.965
ANTELSAT 26 Jan 09:49:06 09:53:18 33° 72° (ENE) 09:57:34 437.575/2403.000
POLYITAN 1 26 Jan 09:49:21 09:52:11 18° 70° (ENE) 09:55:13 437.675
Oscar 11 26 Jan 09:51:21 09:55:32 48° 99° (E) 09:59:41 145.826/435.025
TIGRISAT 26 Jan 09:58:38 10:03:02 41° 73° (ENE) 10:07:29 435.000
SO-50 26 Jan 09:58:45 09:59:35 11° 108° (ESE) 10:00:45 436.795
DOVE 4 26 Jan 10:01:25 10:06:35 59° 285° (WNW) 10:11:28 437.250
AAUSAT CUBESAT 2 26 Jan 10:01:55 10:05:59 53° 285° (WNW) 10:10:00 437.432
CUTE 1.7 + AOD 2 26 Jan 10:02:11 10:05:59 32° 287° (WNW) 10:09:42 437.475
BUGSAT 1 26 Jan 10:06:05 10:09:00 20° 70° (ENE) 10:12:05 437.445
POPSAT HIP 1 26 Jan 10:10:15 10:13:58 31° 73° (ENE) 10:17:47 437.405
CUBEBUG 2 26 Jan 10:10:46 10:15:18 56° 99° (E) 10:19:40 437.445
CINEMA 3 26 Jan 10:13:03 10:17:57 77° 283° (WNW) 10:22:36 145.822/145.860
DUCHIFAT 1 26 Jan 10:14:47 10:18:36 34° 73° (ENE) 10:22:31 145.980
PHONESAT 2.4 26 Jan 10:15:02 10:18:31 49° 151° (SSE) 10:22:03 2401.200-2431.200
DELFI C3 26 Jan 10:15:57 10:20:00 80° 99° (E) 10:24:02 145.870
UKube-1 26 Jan 10:24:44 10:29:05 65° 102° (ESE) 10:33:25 .
ZACube-1 26 Jan 10:32:55 10:37:22 70° 101° (E) 10:41:41 437.345
SEEDS 26 Jan 10:38:40 10:41:09 15° 291° (WNW) 10:43:28 437.485
DX 1 26 Jan 10:41:33 10:45:57 75° 284° (WNW) 10:50:20 434.975-435.025
ESTCUBE 1 26 Jan 10:43:59 10:46:37 16° 92° (E) 10:49:28 437.505/2401.250
FUNcube-1 26 Jan 10:46:01 10:50:29 82° 281° (WNW) 10:54:48 145.935
NANOSAT C BR1 26 Jan 10:48:07 10:52:22 90° 256° (WSW) 10:56:40 145.865
UNISAT 6 26 Jan 10:49:36 10:54:12 51° 261° (W) 10:58:48 437.425
AISAT 26 Jan 10:50:23 10:54:44 46° 99° (E) 10:59:05 437.250
RS-15 26 Jan 10:51:16 10:53:55 11° 3° (N) 10:56:39 29.354- 29.394
HO-68 26 Jan 10:54:01 10:59:40 25° 296° (WNW) 11:05:05 435.675
UWE-3 26 Jan 10:57:59 11:02:21 47° 286° (WNW) 11:06:33 435.000/436.395/437.385
QB50P2 26 Jan 11:00:34 11:04:47 62° 259° (W) 11:09:03 145.880/145.840
HUMSAT D 26 Jan 11:01:38 11:05:55 82° 102° (ESE) 11:10:06 437.325/437.525
50 SAT 26 Jan 11:08:04 11:12:07 72° 101° (E) 11:16:07 437.505
QB50P1 26 Jan 11:11:15 11:15:21 46° 261° (W) 11:19:28 145.935-145.965
VERMONT LUNAR 26 Jan 11:14:03 11:17:25 43° 345° (NNW) 11:20:48 437.305
VELOX 1 26 Jan 11:20:19 11:24:49 79° 284° (WNW) 11:29:18 145.980
POLYITAN 1 26 Jan 11:24:05 11:27:56 32° 263° (W) 11:31:48 437.675
ANTELSAT 26 Jan 11:26:35 11:30:11 21° 267° (W) 11:33:39 437.575/2403.000
Oscar 11 26 Jan 11:29:25 11:31:20 12° 292° (WNW) 11:33:03 145.826/435.025
SO-50 26 Jan 11:35:07 11:39:36 64° 301° (WNW) 11:44:16 436.795
TIGRISAT 26 Jan 11:36:55 11:40:00 17° 268° (W) 11:42:53 435.000
CUBEBUG 1 26 Jan 11:38:42 11:43:07 65° 101° (E) 11:47:32 437.445
SPROUT 26 Jan 11:39:00 11:40:59 13° 91° (E) 11:43:13 437.525
BUGSAT 1 26 Jan 11:40:58 11:44:24 26° 264° (W) 11:47:49 437.445
GONETS M04 26 Jan 11:41:19 11:46:21 17° 65° (ENE) 11:51:55
BEESAT 2 26 Jan 11:44:22 11:47:14 18° 50° (NE) 11:50:10 435.950
AIST 1 26 Jan 11:45:09 11:49:14 48° 94° (E) 11:53:22
POPSAT HIP 1 26 Jan 11:46:57 11:49:58 18° 267° (W) 11:52:52 437.405
CUBEBUG 2 26 Jan 11:49:41 11:51:32 12° 294° (WNW) 11:53:06 437.445
DUCHIFAT 1 26 Jan 11:51:53 11:54:38 16° 268° (W) 11:57:12 145.980
PHONESAT 2.4 26 Jan 11:53:41 11:57:09 42° 346° (NNW) 12:00:39 2401.200-2431.200
Oscar 19 26 Jan 11:55:16 11:57:22 13° 65° (ENE) 11:59:47 437.125/150
BEESAT 3 26 Jan 12:01:18 12:04:56 30° 54° (NE) 12:08:35 437.485
ESTCUBE 1 26 Jan 12:19:29 12:23:43 39° 287° (WNW) 12:27:55 437.505/2401.250
TISAT 1 26 Jan 12:25:34 12:29:44 48° 99° (E) 12:33:53 437.305
AISAT 26 Jan 12:28:32 12:31:01 14° 292° (WNW) 12:33:17 437.250
VERMONT LUNAR 26 Jan 12:52:52 12:56:01 29° 2° (N) 12:59:10 437.305
SWISSCUBE 26 Jan 12:58:29 13:01:23 17° 92° (E) 13:04:31 437.505
AIST 2 26 Jan 13:00:38 13:04:45 47° 57° (ENE) 13:08:50 435.215
RS-15 26 Jan 13:03:34 13:12:18 26° 37° (NE) 13:21:41 29.354- 29.394
SPROUT 26 Jan 13:13:13 13:17:22 43° 286° (WNW) 13:21:27 437.525
BEESAT 26 Jan 13:14:18 13:17:59 23° 94° (E) 13:21:49 436.000
ITUPSAT 1 26 Jan 13:16:05 13:19:51 23° 95° (E) 13:23:43 437.325
CUBEBUG 1 26 Jan 13:18:26 13:19:01 10° 294° (WNW) 13:19:21 437.445
BEESAT 2 26 Jan 13:21:46 13:25:37 36° 246° (WSW) 13:29:22 435.950
AIST 1 26 Jan 13:26:16 13:27:19 11° 290° (WNW) 13:28:04
PCSat 26 Jan 13:27:37 13:30:32 15° 48° (NE) 13:33:41 145.827
Oscar 19 26 Jan 13:31:03 13:36:13 68° 258° (WSW) 13:41:25 437.125/150
PHONESAT 2.4 26 Jan 13:32:56 13:36:13 31° 3° (N) 13:39:32 2401.200-2431.200
GONETS M04 26 Jan 13:35:43 13:44:26 83° 265° (W) 13:53:08
BEESAT 3 26 Jan 13:39:51 13:42:56 20° 249° (WSW) 13:45:51 437.485
ITAMSAT 1 26 Jan 13:40:16 13:45:13 49° 73° (ENE) 13:50:13 435.822/435.867
TISAT 1 26 Jan 14:03:14 14:05:12 13° 292° (WNW) 14:06:56 437.305
Gurwin Techsat 1B 26 Jan 14:18:33 14:23:50 78° 77° (ENE) 14:29:10 435.225
KKS-1 26 Jan 14:26:06 14:29:46 25° 95° (E) 14:33:29 437.445
STARS 26 Jan 14:27:34 14:30:16 16° 92° (E) 14:33:08 437.465
VERMONT LUNAR 26 Jan 14:31:04 14:34:32 55° 18° (NNE) 14:38:02 437.305
AO-7 26 Jan 14:32:29 14:39:10 29° 62° (ENE) 14:46:04 29.400- 29.500
SWISSCUBE 26 Jan 14:34:59 14:39:30 42° 287° (WNW) 14:43:58 437.505
AIST 2 26 Jan 14:41:01 14:43:01 13° 251° (WSW) 14:44:46 435.215
BEESAT 26 Jan 14:51:42 14:55:53 30° 289° (WNW) 15:00:01 436.000
ITUPSAT 1 26 Jan 14:53:36 14:57:47 30° 289° (WNW) 15:01:53 437.325
CUSAT 1 26 Jan 15:01:52 15:06:17 20° 64° (ENE) 15:10:07 437.405
HORYU 2 26 Jan 15:08:38 15:13:08 81° 77° (ENE) 15:17:39 437.375
PCSat 26 Jan 15:09:12 15:14:37 74° 247° (WSW) 15:20:00 145.827
PHONESAT 2.4 26 Jan 15:11:33 15:15:11 62° 20° (NNE) 15:18:49 2401.200-2431.200
RS-15 26 Jan 15:15:05 15:26:36 87° 63° (ENE) 15:38:38 29.354- 29.394
ITAMSAT 1 26 Jan 15:21:45 15:25:04 16° 268° (W) 15:28:08 435.822/435.867
GONETS M04 26 Jan 15:36:37 15:40:11 12° 280° (W) 15:43:00
M-CUBED/EXP-1 PRIME 26 Jan 15:41:50 15:45:04 49° 105° (ESE) 15:48:22 437.505
DANDE 26 Jan 15:58:14 16:04:59 58° 76° (ENE) 16:09:59 436.750
KKS-1 26 Jan 16:02:39 16:06:22 25° 289° (WNW) 16:09:58 437.445
STARS 26 Jan 16:02:49 16:06:57 37° 287° (WNW) 16:10:59 437.465
VERMONT LUNAR 26 Jan 16:09:26 16:12:34 29° 213° (SSW) 16:15:42 437.305
AUBIESAT-1 26 Jan 16:17:38 16:20:52 51° 289° (WNW) 16:24:11 437.475
AO-7 26 Jan 16:23:18 16:31:31 59° 257° (WSW) 16:39:45 29.400- 29.500
JAS-2 26 Jan 16:29:22 16:35:09 78° 76° (ENE) 16:40:27 435.910
CUSAT 1 26 Jan 16:44:00 16:49:53 42° 270° (W) 16:54:17 437.405
PHONESAT 2.4 26 Jan 16:50:28 16:53:38 27° 214° (SSW) 16:56:45 2401.200-2431.200
Cubesat XI-IV 26 Jan 17:00:40 17:04:25 21° 68° (ENE) 17:08:23 437.490
O/OREOS (USA 219) 26 Jan 17:05:50 17:10:18 84° 292° (WNW) 17:14:50 437.305
MOZHAYETS 4 26 Jan 17:19:10 17:23:45 79° 102° (ESE) 17:28:19
CUTE-I 26 Jan 17:20:36 17:25:12 32° 70° (ENE) 17:29:55 437.470
RS-15 26 Jan 17:29:56 17:38:03 21° 256° (WSW) 17:45:33 29.354- 29.394
DANDE 26 Jan 17:43:40 17:47:24 16° 279° (W) 17:50:21 436.750
JUGNU 26 Jan 18:30:18 18:33:25 15° 169° (S) 18:36:37 437.505
YUBILEINY 26 Jan 18:38:12 18:42:30 16° 81° (E) 18:47:25 435.215
Cubesat XI-IV 26 Jan 18:39:14 18:44:16 43° 261° (W) 18:49:19 437.490
PRISM 26 Jan 18:43:29 18:47:36 64° 101° (E) 18:51:43 437.425
CUTE-I 26 Jan 19:00:48 19:05:18 27° 265° (W) 19:09:43 437.470
CUBESAT XI-V 26 Jan 19:03:12 19:07:53 73° 101° (ESE) 19:12:36 437.345
SRMSAT 26 Jan 19:07:12 19:08:04 10° 165° (SSE) 19:09:04 437.500
HO-68 26 Jan 19:30:49 19:36:42 30° 65° (ENE) 19:42:45 435.675
STRAND 1 26 Jan 19:37:35 19:42:44 76° 285° (WNW) 19:47:53 437.568
SEEDS 26 Jan 19:51:34 19:54:23 18° 70° (ENE) 19:57:21 437.485
SO-50 26 Jan 20:09:54 20:14:37 44° 56° (NE) 20:19:20 436.795
JUGNU 26 Jan 20:17:40 20:21:47 19° 179° (S) 20:25:55 437.505
COMPASS 1 26 Jan 20:21:13 20:24:59 32° 73° (ENE) 20:28:48 437.405
CANX-2 26 Jan 20:26:28 20:30:43 62° 76° (ENE) 20:34:59 2200.000
BRITE-PL 26 Jan 20:27:30 20:32:20 82° 79° (E) 20:37:38 437.365/2234.400
YUBILEINY 26 Jan 20:29:40 20:38:23 85° 278° (W) 20:47:07 435.215
GOMX 1 26 Jan 20:37:20 20:42:11 72° 77° (ENE) 20:47:27 467.674
Oscar 11 26 Jan 20:43:14 20:46:44 25° 72° (ENE) 20:50:20 145.826/435.025
AAUSAT CUBESAT 2 26 Jan 20:49:17 20:53:27 63° 76° (ENE) 20:57:37 437.432
CUTE 1.7 + AOD 2 26 Jan 20:51:01 20:55:19 73° 260° (W) 20:59:37 437.475
SRMSAT 26 Jan 20:52:43 20:56:34 18° 173° (S) 21:00:26 437.500
DELFI C3 26 Jan 21:01:06 21:04:40 30° 73° (ENE) 21:08:17 145.870
DOVE 4 26 Jan 21:02:48 21:07:42 86° 261° (W) 21:12:55 437.250
CUBEBUG 2 26 Jan 21:05:31 21:09:40 33° 72° (ENE) 21:13:57 437.445
CINEMA 3 26 Jan 21:10:39 21:15:26 66° 76° (ENE) 21:20:25 145.822/145.860
UKube-1 26 Jan 21:16:35 21:20:30 35° 72° (ENE) 21:24:28 .
HO-68 26 Jan 21:17:21 21:24:12 47° 260° (W) 21:31:00 435.675
ZACube-1 26 Jan 21:25:23 21:29:33 37° 73° (ENE) 21:33:49 437.345
SEEDS 26 Jan 21:26:11 21:30:01 32° 263° (W) 21:33:50 437.485
DX 1 26 Jan 21:33:39 21:37:54 59° 75° (ENE) 21:42:13 434.975-435.025
FUNcube-1 26 Jan 21:38:03 21:42:27 50° 74° (ENE) 21:46:56 145.935
AISAT 26 Jan 21:45:31 21:49:14 28° 71° (ENE) 21:53:04 437.250
HUMSAT D 26 Jan 21:50:17 21:54:15 36° 73° (ENE) 21:58:17 437.325/437.525
UWE-3 26 Jan 21:50:56 21:55:36 88° 69° (ENE) 22:00:19 435.000/436.395/437.385
SO-50 26 Jan 21:51:26 21:54:54 19° 250° (WSW) 21:58:11 436.795
50 SAT 26 Jan 21:52:27 21:55:57 27° 72° (ENE) 21:59:31 437.505
TIGRISAT 26 Jan 21:57:20 21:57:54 10° 89° (E) 21:58:47 435.000
COMPASS 1 26 Jan 21:58:00 22:00:50 17° 267° (W) 22:03:29 437.405
JUGNU 26 Jan 22:06:30 22:10:09 16° 189° (S) 22:13:44 437.505
VELOX 1 26 Jan 22:14:36 22:18:55 59° 76° (ENE) 22:23:19 145.980
Oscar 11 26 Jan 22:19:20 22:22:53 23° 265° (W) 22:26:20 145.826/435.025
GOMX 1 26 Jan 22:20:23 22:21:06 10° 274° (W) 22:21:24 467.674
CUBEBUG 1 26 Jan 22:31:51 22:35:44 34° 72° (ENE) 22:39:41 437.445
YUBILEINY 26 Jan 22:32:12 22:36:46 14° 298° (WNW) 22:40:39 435.215
ISS 26 Jan 22:36:10 22:39:24 72° 137° (SE) 22:42:42 145.825
DELFI C3 26 Jan 22:37:18 22:40:01 17° 267° (W) 22:42:34 145.870
NANOSAT C BR1 26 Jan 22:37:54 22:40:58 19° 94° (E) 22:44:07 145.865
SRMSAT 26 Jan 22:41:01 22:45:05 19° 183° (S) 22:49:08 437.500
CUBEBUG 2 26 Jan 22:42:49 22:46:27 21° 267° (W) 22:50:00 437.445
UNISAT 6 26 Jan 22:45:40 22:49:55 43° 98° (E) 22:54:04 437.425
QB50P2 26 Jan 22:50:07 22:53:48 28° 96° (E) 22:57:31 145.880/145.840
CINEMA 3 26 Jan 22:51:44 22:53:14 11° 272° (W) 22:54:23 145.822/145.860
UKube-1 26 Jan 22:53:59 22:56:49 16° 267° (W) 22:59:28 .
QB50P1 26 Jan 23:00:13 23:04:12 36° 98° (E) 23:08:10 145.935-145.965
ZACube-1 26 Jan 23:02:55 23:06:06 18° 268° (W) 23:09:07 437.345
POLYITAN 1 26 Jan 23:12:57 23:17:11 53° 100° (E) 23:21:23 437.675
TISAT 1 26 Jan 23:15:19 23:18:37 23° 71° (ENE) 23:22:02 437.305
ESTCUBE 1 26 Jan 23:15:23 23:19:50 66° 259° (WSW) 23:24:18 437.505/2401.250
FUNcube-1 26 Jan 23:17:01 23:19:10 13° 270° (W) 23:21:03 145.935
ANTELSAT 26 Jan 23:21:18 23:25:45 70° 284° (WNW) 23:30:04 437.575/2403.000
AISAT 26 Jan 23:22:23 23:25:53 22° 266° (W) 23:29:17 437.250
BUGSAT 1 26 Jan 23:26:04 23:30:18 57° 101° (E) 23:34:30 437.445
HUMSAT D 26 Jan 23:27:28 23:30:13 16° 268° (W) 23:32:47 437.325/437.525
50 SAT 26 Jan 23:28:05 23:31:07 19° 266° (W) 23:34:01 437.505
TIGRISAT 26 Jan 23:30:45 23:35:08 55° 286° (WNW) 23:39:23 435.000
AIST 1 26 Jan 23:33:14 23:37:32 62° 265° (W) 23:41:51
POPSAT HIP 1 26 Jan 23:34:23 23:38:44 84° 285° (WNW) 23:43:02 437.405
DUCHIFAT 1 26 Jan 23:38:42 23:43:00 76° 283° (WNW) 23:47:16 145.980
SWISSCUBE 27 Jan 00:02:55 00:05:08 14° 67° (ENE) 00:07:35 437.505
SPROUT 27 Jan 00:03:35 00:07:52 89° 257° (WSW) 00:12:13 437.525
CUBEBUG 1 27 Jan 00:09:21 00:12:15 17° 267° (W) 00:15:00 437.445
NANOSAT C BR1 27 Jan 00:13:08 00:16:54 29° 288° (WNW) 00:20:33 145.865
ISS 27 Jan 00:14:30 00:16:17 14° 332° (NNW) 00:18:01 145.825
BEESAT 27 Jan 00:18:13 00:21:23 19° 68° (ENE) 00:24:43 436.000
ITUPSAT 1 27 Jan 00:20:19 00:23:34 19° 69° (ENE) 00:26:58 437.325
UNISAT 6 27 Jan 00:23:52 00:26:22 15° 292° (WNW) 00:28:40 437.425
QB50P2 27 Jan 00:26:19 00:29:36 21° 290° (WNW) 00:32:44 145.880/145.840
SRMSAT 27 Jan 00:30:54 00:33:35 13° 193° (SSW) 00:36:10 437.500
QB50P1 27 Jan 00:37:05 00:39:50 16° 291° (WNW) 00:42:25 145.935-145.965
GONETS M04 27 Jan 00:38:16 00:44:23 23° 84° (E) 00:50:53
TISAT 1 27 Jan 00:50:55 00:54:23 24° 265° (W) 00:57:48 437.305
POLYITAN 1 27 Jan 00:51:08 00:52:43 12° 293° (WNW) 00:54:03 437.675
BUGSAT 1 27 Jan 01:04:16 01:05:22 11° 293° (WNW) 01:06:12 437.445
KKS-1 27 Jan 01:22:06 01:24:42 16° 68° (ENE) 01:27:30 437.445
SWISSCUBE 27 Jan 01:37:57 01:42:37 54° 260° (W) 01:47:17 437.505
Oscar 19 27 Jan 01:46:19 01:51:23 57° 100° (E) 01:56:25 437.125/150
BEESAT 3 27 Jan 01:54:08 01:55:55 13° 109° (ESE) 01:57:53 437.485
BEESAT 27 Jan 01:54:33 01:58:59 39° 262° (W) 02:03:26 436.000
ITUPSAT 1 27 Jan 01:56:49 02:01:14 37° 262° (W) 02:05:39 437.325
ITAMSAT 1 27 Jan 01:57:17 02:01:22 24° 94° (E) 02:05:34 435.822/435.867
M-CUBED/EXP-1 PRIME 27 Jan 02:27:37 02:31:37 42° 71° (ENE) 02:35:20 437.505
GONETS M04 27 Jan 02:31:53 02:40:36 65° 279° (W) 02:49:17
Gurwin Techsat 1B 27 Jan 02:38:35 02:43:35 41° 98° (E) 02:48:36 435.225
STARS 27 Jan 02:55:56 03:00:21 66° 260° (W) 03:04:47 437.465
AIST 2 27 Jan 02:56:11 02:59:32 24° 112° (ESE) 03:03:02 435.215
KKS-1 27 Jan 02:56:50 03:01:04 41° 262° (W) 03:05:18 437.445
AUBIESAT-1 27 Jan 03:02:45 03:06:58 76° 253° (WSW) 03:10:51 437.475
HORYU 2 27 Jan 03:04:38 03:07:53 20° 94° (E) 03:11:14 437.375
BEESAT 2 27 Jan 03:12:48 03:16:54 81° 298° (WNW) 03:21:05 435.950
O/OREOS (USA 219) 27 Jan 03:19:15 03:23:52 80° 251° (WSW) 03:28:27 437.305
DANDE 27 Jan 03:23:26 03:27:37 16° 82° (E) 03:32:35 436.750
Oscar 19 27 Jan 03:27:22 03:30:19 15° 294° (WNW) 03:33:00 437.125/150
RS-15 27 Jan 03:28:49 03:33:35 15° 102° (ESE) 03:39:20 29.354- 29.394
BEESAT 3 27 Jan 03:29:47 03:33:42 44° 302° (WNW) 03:37:41 437.485
ITAMSAT 1 27 Jan 03:36:13 03:40:58 35° 289° (WNW) 03:45:38 435.822/435.867
CUSAT 1 27 Jan 04:02:25 04:09:28 40° 90° (E) 04:17:14 437.405
M-CUBED/EXP-1 PRIME 27 Jan 04:04:47 04:06:43 13° 262° (W) 04:08:24 437.505
PCSat 27 Jan 04:05:16 04:09:27 24° 108° (ESE) 04:13:47 145.827
MOZHAYETS 4 27 Jan 04:17:40 04:22:05 48° 74° (ENE) 04:26:31
Gurwin Techsat 1B 27 Jan 04:19:20 04:23:19 21° 292° (WNW) 04:27:09 435.225
AO-7 27 Jan 04:28:45 04:36:59 62° 103° (ESE) 04:45:10 29.400- 29.500
AIST 2 27 Jan 04:34:25 04:38:05 27° 307° (NW) 04:41:44 435.215
HORYU 2 27 Jan 04:40:43 04:44:36 29° 289° (WNW) 04:48:24 437.375
DANDE 27 Jan 05:02:12 05:09:58 87° 97° (E) 05:18:45 436.750
ISS 27 Jan 05:07:26 05:09:53 19° 32° (NNE) 05:12:22 145.825
STRAND 1 27 Jan 05:15:08 05:16:22 11° 64° (ENE) 05:17:56 437.568
JAS-2 27 Jan 05:25:25 05:31:07 87° 284° (WNW) 05:37:33 435.910
PRISM 27 Jan 05:31:07 05:34:38 29° 72° (ENE) 05:38:13 437.425
RS-15 27 Jan 05:33:40 05:44:37 82° 116° (ESE) 05:55:36 29.354- 29.394
CUTE-I 27 Jan 05:42:08 05:45:23 17° 92° (E) 05:48:53 437.470
CUSAT 1 27 Jan 05:44:59 05:52:28 43° 287° (WNW) 06:00:23 437.405
PCSat 27 Jan 05:47:36 05:52:40 39° 302° (WNW) 05:57:43 145.827
MOZHAYETS 4 27 Jan 05:57:21 05:59:39 13° 269° (W) 06:01:41
CUBESAT XI-V 27 Jan 06:03:18 06:07:40 46° 74° (ENE) 06:12:05 437.345
AO-7 27 Jan 06:22:33 06:29:18 27° 299° (WNW) 06:35:47 29.400- 29.500
ISS 27 Jan 06:43:25 06:46:31 39° 228° (SW) 06:49:37 145.825
YUBILEINY 27 Jan 06:44:32 06:52:36 41° 75° (ENE) 07:00:48 435.215
DANDE 27 Jan 06:49:04 06:54:45 19° 297° (WNW) 07:00:15 436.750
STRAND 1 27 Jan 06:49:56 06:55:01 76° 258° (WSW) 07:00:08 437.568
Cubesat XI-IV 27 Jan 06:59:45 07:05:09 80° 284° (WNW) 07:10:31 437.490
PRISM 27 Jan 07:07:21 07:10:14 18° 266° (W) 07:12:59 437.425
JAS-2 27 Jan 07:14:52 07:15:48 10° 295° (WNW) 07:16:17 435.910
CUTE-I 27 Jan 07:20:36 07:25:49 51° 287° (WNW) 07:30:59 437.470
CUBESAT XI-V 27 Jan 07:42:59 07:45:26 14° 269° (W) 07:47:38 437.345
RS-15 27 Jan 07:49:22 07:58:26 28° 321° (NW) 08:07:18 29.354- 29.394
CANX-2 27 Jan 08:17:16 08:19:21 14° 91° (E) 08:21:38 2200.000
BRITE-PL 27 Jan 08:36:13 08:41:29 40° 96° (E) 08:46:35 437.365/2234.400
AAUSAT CUBESAT 2 27 Jan 08:38:09 08:39:57 13° 91° (E) 08:41:58 437.432
CUTE 1.7 + AOD 2 27 Jan 08:40:40 08:44:04 24° 95° (E) 08:47:34 437.475
